1501297200.14,59387,17.69,73852.5,1.39,0.05,0.09,0,*7A
1501297201.34,59388,17.75,73856.8,1.37,-0.03,-0.03,0,*77
1501297202.53,59389,17.69,73856.8,1.37,-0.07,-0.03,0,*72
1501297203.72,59390,17.69,73854.0,1.35,-0.11,-0.19,0,*74
1501297204.91,59391,17.69,73856.5,1.37,-0.07,-0.07,0,*7F
1501297206.07,59392,17.69,73856.0,1.35,0.05,0.01,0,*7A
1501297207.28,59393,17.69,73854.0,1.35,0.17,0.25,0,*7E
1501297208.49,59394,17.69,73854.3,1.35,0.29,0.17,0,*75
1501297209.7,59395,17.69,73854.0,1.35,0.17,0.25,0,*78
1501297210.91,59396,17.69,73846.0,1.35,0.25,0.25,0,*7A
1501297212.15,59397,17.69,73840.3,1.33,0.37,0.37,0,*7D
1501297213.36,59398,17.69,73838.3,1.33,0.37,0.43,0,*71
1501297214.59,59399,17.69,73838.5,1.33,0.33,0.33,0,*73
1501297215.8,59400,17.69,73836.3,1.33,0.43,0.37,0,*77
1501297217.04,59401,17.69,73842.8,1.33,0.37,0.37,0,*75
1501297218.25,59402,17.69,73842.0,1.33,0.43,0.37,0,*75
1501297219.49,59403,17.75,73844.3,1.33,0.47,0.55,0,*74
1501297220.73,59404,17.69,73844.8,1.33,0.47,0.55,0,*73
1501297221.98,59405,17.69,73846.0,1.33,0.55,0.59,0,*7D
1501297223.23,59406,17.75,73850.8,1.33,0.55,0.59,0,*7E
1501297224.48,59407,17.69,73854.8,1.33,0.55,0.47,0,*70
1501297225.7,59408,17.69,73852.5,1.31,0.55,0.47,0,*7D
1501297226.95,59409,17.69,73850.3,1.33,0.55,0.55,0,*7D
1501297228.18,59410,17.69,73834.3,1.33,0.33,0.33,0,*75
1501297229.4,59411,17.69,73842.8,1.31,0.21,0.21,0,*76
1501297230.63,59412,17.69,73840.8,1.33,0.33,0.33,0,*77
1501297231.87,59413,17.69,73844.5,1.33,0.47,0.47,0,*76
1501297233.09,59414,17.69,73852.5,1.33,0.43,0.37,0,*72
1501297234.32,59415,17.69,73848.0,1.33,0.25,0.13,0,*75
1501297235.54,59416,17.69,73850.5,1.31,0.13,0.21,0,*70
1501297236.73,59417,17.69,73834.3,1.33,0.09,0.09,0,*72
1501297237.96,59418,17.69,73834.3,1.33,0.25,0.25,0,*7D
1501297239.17,59419,17.69,73832.8,1.31,0.13,0.13,0,*7E
1501297240.41,59420,17.69,73834.8,1.33,0.33,0.33,0,*76
1501297241.59,59421,17.69,73838.8,1.31,0.43,0.37,0,*76
1501297242.81,59422,17.75,73844.5,1.31,0.37,0.37,0,*76
1501297244.02,59423,17.69,73846.0,1.33,0.37,0.43,0,*76
1501297245.25,59424,17.75,73846.8,1.33,0.33,0.33,0,*72
1501297246.47,59425,17.69,73840.5,1.31,0.25,0.37,0,*72
1501297247.68,59426,17.69,73840.5,1.31,0.33,0.37,0,*76
1501297248.85,59427,17.75,73846.3,1.31,0.43,0.43,0,*73
1501297250.07,59428,17.69,73840.0,1.31,0.55,0.55,0,*7C
1501297251.3,59429,17.69,73846.0,1.31,0.55,0.55,0,*7D
1501297252.52,59430,17.69,73854.5,1.31,0.59,0.55,0,*79
1501297253.75,59431,17.75,73854.8,1.33,0.63,0.63,0,*76
1501297254.99,59432,17.69,73856.8,1.33,0.63,0.71,0,*76
1501297256.22,59433,17.75,73860.3,1.33,0.63,0.63,0,*74
1501297257.44,59434,17.75,73862.0,1.31,0.63,0.63,0,*71
1501297258.66,59435,17.75,73858.8,1.31,0.71,0.63,0,*73
1501297259.88,59436,17.75,73852.3,1.31,0.59,0.55,0,*7F
1501297261.1,59437,17.75,73854.0,1.31,0.55,0.55,0,*72
1501297262.32,59438,17.75,73852.3,1.31,0.47,0.47,0,*7D
1501297263.57,59439,17.75,73854.8,1.33,0.55,0.55,0,*7E
1501297264.81,59440,17.75,73854.0,1.33,0.59,0.59,0,*70
1501297266.05,59441,17.69,73850.3,1.33,0.47,0.47,0,*71
1501297267.27,59442,17.75,73854.3,1.33,0.37,0.43,0,*71
1501297268.49,59443,17.75,73852.5,1.31,0.25,0.21,0,*75
1501297269.65,59444,17.69,73848.8,1.31,0.09,0.09,0,*76
1501297270.86,59445,17.75,73846.5,1.33,-0.15,-0.11,0,*71
1501297272.09,59446,17.75,73846.0,1.31,-0.23,-0.23,0,*74
1501297273.3,59447,17.69,73842.0,1.29,-0.19,-0.19,0,*7C
1501297274.52,59448,17.75,73844.0,1.27,0.33,0.29,0,*76
1501297275.73,59449,17.75,73844.8,1.27,0.51,0.41,0,*7D
1501297276.98,59450,17.75,73844.8,1.29,0.51,0.51,0,*7A
1501297278.21,59451,17.75,73846.8,1.29,0.67,0.67,0,*7B
1501297279.44,59452,17.75,73844.8,1.29,0.71,0.67,0,*7F
1501297280.68,59453,17.75,73848.8,1.29,0.71,0.67,0,*7E
1501297281.9,59454,17.75,73846.8,1.31,0.71,0.71,0,*77
1501297283.12,59455,17.75,73846.0,1.31,0.71,0.71,0,*76
1501297284.34,59456,17.75,73846.8,1.31,0.75,0.75,0,*75
1501297285.58,59457,17.75,73848.8,1.33,0.71,0.75,0,*72
1501297286.82,59458,17.75,73848.0,1.33,0.75,0.75,0,*79
1501297288.04,59459,17.75,73854.3,1.31,0.55,0.59,0,*76
1501297289.27,59460,17.75,73852.0,1.31,0.55,0.59,0,*7C
1501297290.48,59461,17.75,73844.3,1.31,0.33,0.33,0,*71
1501297291.69,59462,17.75,73842.5,1.31,0.25,0.33,0,*75
1501297292.93,59463,17.75,73842.8,1.33,0.33,0.37,0,*75
1501297294.09,59464,17.75,73840.8,1.31,0.43,0.43,0,*74
1501297295.34,59465,17.75,73846.5,1.33,0.55,0.55,0,*77
1501297296.56,59466,17.75,73844.0,1.31,0.55,0.47,0,*75
1501297297.77,59467,17.75,73830.3,1.31,0.37,0.37,0,*77
1501297298.99,59468,17.75,73836.5,1.31,0.21,0.21,0,*78
1501297300.22,59469,17.75,73832.8,1.31,0.21,0.21,0,*79
1501297301.46,59470,17.75,73830.0,1.29,0.17,0.21,0,*7D
1501297302.7,59471,17.75,73834.0,1.29,0.29,0.21,0,*71
1501297303.94,59472,17.75,73838.0,1.29,0.33,0.29,0,*71
1501297305.17,59473,17.75,73832.0,1.29,0.33,0.29,0,*70
1501297306.41,59474,17.75,73838.3,1.29,0.41,0.41,0,*7C
1501297307.63,59475,17.75,73842.8,1.29,0.51,0.43,0,*7E
1501297308.86,59476,17.75,73840.8,1.29,0.33,0.29,0,*75
1501297310.1,59477,17.75,73836.0,1.29,0.41,0.41,0,*7F
1501297311.32,59478,17.75,73834.8,1.29,0.41,0.43,0,*72
1501297312.55,59479,17.75,73834.0,1.29,0.33,0.41,0,*74
1501297313.79,59480,17.75,73828.3,1.29,0.21,0.29,0,*7F
1501297315.03,59481,17.75,73828.0,1.29,0.21,0.21,0,*76
1501297316.27,59482,17.75,73820.8,1.29,0.29,0.29,0,*75
1501297317.52,59483,17.75,73824.3,1.29,0.51,0.51,0,*74
1501297318.76,59484,17.75,73818.5,1.29,0.55,0.51,0,*77
1501297319.98,59485,17.75,73818.3,1.27,0.59,0.59,0,*7C
1501297321.22,59486,17.75,73812.5,1.29,0.59,0.67,0,*7C
1501297322.46,59487,17.75,73842.5,1.29,0.55,0.59,0,*7C
1501297323.68,59488,17.75,73834.0,1.31,0.75,0.71,0,*72
1501297324.9,59489,17.75,73838.0,1.31,0.71,0.75,0,*73
1501297326.14,59490,17.75,73840.5,1.29,0.71,0.67,0,*71
1501297327.35,59491,17.75,73836.0,1.31,0.75,0.75,0,*7E
1501297328.57,59492,17.75,73822.0,1.31,0.71,0.71,0,*7D
1501297329.79,59493,17.75,73822.8,1.31,0.75,0.71,0,*78
1501297331.0,59494,17.75,73836.8,1.31,0.63,0.71,0,*78
1501297332.22,59495,17.75,73838.5,1.31,0.71,0.71,0,*7A
1501297333.44,59496,17.75,73840.0,1.31,0.71,0.71,0,*79
1501297334.66,59497,17.75,73842.8,1.31,0.71,0.75,0,*7C
1501297335.88,59498,17.75,73840.3,1.31,0.71,0.71,0,*77
1501297337.1,59499,17.75,73840.5,1.31,0.71,0.75,0,*72
1501297338.34,59500,17.75,73844.5,1.33,0.63,0.71,0,*76
1501297339.55,59501,17.75,73844.8,1.31,0.59,0.47,0,*79
1501297340.79,59502,17.75,73846.0,1.33,0.59,0.55,0,*7B
1501297342.01,59503,17.75,73844.8,1.31,0.59,0.55,0,*78
1501297343.26,59504,17.75,73844.0,1.33,0.59,0.55,0,*7D
1501297344.48,59505,17.75,73842.8,1.31,0.59,0.55,0,*7E
1501297345.71,59506,17.75,73846.3,1.33,0.71,0.63,0,*70
1501297346.93,59507,17.75,73844.5,1.31,0.75,0.83,0,*79
1501297348.17,59508,17.75,73852.5,1.33,0.71,0.71,0,*7D
1501297349.42,59509,17.75,73848.5,1.33,0.71,0.59,0,*76
1501297350.63,59510,17.75,73850.0,1.31,0.59,0.63,0,*7F
1501297351.87,59511,17.75,73848.8,1.33,0.59,0.59,0,*75
1501297353.11,59512,17.75,73840.8,1.33,0.59,0.59,0,*76
1501297354.35,59513,17.75,73836.8,1.33,0.59,0.59,0,*77
1501297355.59,59514,17.75,73834.3,1.33,0.71,0.63,0,*73
1501297356.83,59515,17.75,73834.5,1.33,0.71,0.71,0,*71
1501297358.06,59516,17.75,73836.5,1.31,0.83,0.83,0,*70
1501297359.29,59517,17.75,73842.5,1.33,0.75,0.83,0,*7A
1501297360.54,59518,17.69,73842.5,1.33,0.71,0.83,0,*71
1501297361.75,59519,17.75,73846.0,1.35,0.75,0.75,0,*7B
1501297362.96,59520,17.69,73838.8,1.35,0.75,0.75,0,*71
1501297364.19,59521,17.69,73842.3,1.35,0.91,0.75,0,*7A
1501297365.4,59522,17.75,73840.3,1.35,0.63,0.63,0,*73
1501297366.62,59523,17.75,73840.0,1.35,0.51,0.51,0,*72
1501297367.83,59524,17.69,73842.3,1.35,0.59,0.59,0,*75
1501297369.08,59525,17.75,73842.5,1.33,0.55,0.47,0,*71
1501297370.33,59526,17.75,73840.3,1.33,0.55,0.47,0,*72
1501297371.57,59527,17.75,73838.5,1.33,0.47,0.47,0,*70
1501297372.82,59528,17.75,73836.3,1.33,0.55,0.55,0,*7F
1501297374.06,59529,17.69,73842.0,1.33,0.63,0.71,0,*7D
1501297375.29,59530,17.75,73844.0,1.33,0.63,0.71,0,*75
1501297376.53,59531,17.75,73840.5,1.33,0.59,0.75,0,*79
1501297377.78,59532,17.75,73844.3,1.33,0.71,0.75,0,*70
1501297378.99,59533,17.75,73844.5,1.35,0.71,0.75,0,*77
1501297380.21,59534,17.75,73854.8,1.35,0.63,0.59,0,*7D
1501297381.45,59535,17.75,73848.8,1.33,0.59,0.55,0,*7F
1501297382.69,59536,17.75,73844.3,1.33,0.47,0.47,0,*70
1501297383.91,59537,17.75,73844.5,1.33,0.47,0.43,0,*75
1501297385.12,59538,17.75,73840.8,1.33,0.37,0.43,0,*7D
1501297386.35,59539,17.75,73848.0,1.33,0.37,0.33,0,*7B
1501297387.56,59540,17.75,73848.0,1.33,0.43,0.37,0,*72
1501297388.75,59541,17.75,73844.5,1.33,0.43,0.43,0,*70
1501297389.96,59542,17.75,73844.8,1.33,-0.03,-0.11,0,*40
1501297391.16,59543,17.75,73842.8,1.31,-0.15,-0.23,0,*75
1501297392.36,59544,17.75,73844.5,1.31,-0.23,-0.29,0,*7D
1501297393.59,59545,17.69,73842.8,1.29,-0.27,-0.29,0,*71
1501297394.84,59546,17.75,73844.5,1.29,-0.27,-0.27,0,*7C
1501297396.03,59547,17.75,73844.5,1.27,-0.19,-0.19,0,*73
1501297397.21,59548,17.75,73840.5,1.27,-0.07,-0.19,0,*43
1501297398.38,59549,17.75,73844.5,1.27,-0.03,-0.07,0,*79
1501297399.55,59550,17.75,73838.3,1.27,0.09,0.09,0,*75
1501297400.76,59551,17.69,73836.0,1.27,0.17,0.17,0,*74
1501297401.98,59552,17.69,73834.3,1.27,0.17,0.21,0,*72
1501297403.21,59553,17.69,73828.5,1.25,0.25,0.17,0,*75
1501297404.43,59554,17.69,73826.0,1.27,0.29,0.29,0,*71
1501297405.67,59555,17.75,73822.8,1.25,0.41,0.37,0,*73
1501297406.91,59556,17.69,73824.0,1.25,0.47,0.47,0,*71
1501297408.16,59557,17.75,73834.3,1.25,0.55,0.51,0,*74
1501297409.37,59558,17.75,73828.3,1.27,0.67,0.59,0,*70
1501297410.61,59559,17.75,73828.0,1.29,0.67,0.71,0,*75
1501297411.85,59560,17.75,73830.3,1.29,0.71,0.71,0,*78
1501297413.07,59561,17.75,73838.0,1.27,0.71,0.71,0,*77
1501297414.28,59562,17.75,73834.8,1.27,0.67,0.67,0,*74
1501297415.52,59563,17.75,73832.3,1.29,0.71,0.71,0,*7B
1501297416.76,59564,17.69,73834.8,1.29,0.67,0.59,0,*71
1501297418.0,59565,17.69,73828.3,1.29,0.55,0.55,0,*7D
1501297419.17,59566,17.75,73828.8,1.27,0.43,0.43,0,*70
1501297420.38,59567,17.75,73828.3,1.27,0.33,0.33,0,*71
1501297421.57,59568,17.75,73830.8,1.27,0.51,0.43,0,*7D
1501297422.82,59569,17.75,73828.5,1.29,0.55,0.55,0,*71
1501297424.04,59570,17.75,73830.5,1.27,0.59,0.59,0,*77
1501297425.28,59571,17.75,73828.8,1.29,0.67,0.59,0,*75
1501297426.52,59572,17.75,73826.3,1.29,0.55,0.55,0,*7B
1501297427.77,59573,17.75,73826.5,1.29,0.55,0.55,0,*7A
1501297429.02,59574,17.69,73830.5,1.29,0.55,0.55,0,*7D
1501297430.25,59575,17.75,73832.0,1.27,0.55,0.59,0,*7E
1501297431.48,59576,17.75,73830.8,1.29,0.59,0.67,0,*72
1501297432.71,59577,17.75,73826.3,1.29,0.67,0.71,0,*79
1501297433.93,59578,17.75,73830.8,1.31,0.75,0.75,0,*78
1501297435.17,59579,17.75,73832.0,1.33,0.75,0.75,0,*7B
1501297436.41,59580,17.75,73834.8,1.33,0.71,0.75,0,*79
1501297437.64,59581,17.75,73838.5,1.31,0.71,0.75,0,*7A
1501297438.85,59582,17.75,73836.3,1.31,0.71,0.71,0,*7D
1501297440.07,59583,17.75,73836.8,1.31,0.59,0.59,0,*7C
1501297441.31,59584,17.75,73836.0,1.33,0.59,0.59,0,*79
1501297442.5,59585,17.75,73842.5,1.31,0.37,0.43,0,*79
1501297443.72,59586,17.75,73834.8,1.31,0.21,0.25,0,*7D
1501297444.93,59587,17.75,73836.3,1.31,0.13,0.13,0,*78
1501297446.14,59588,17.75,73834.8,1.31,0.21,0.25,0,*73
1501297447.35,59589,17.75,73834.8,1.31,0.33,0.33,0,*76
1501297448.59,59590,17.75,73836.8,1.29,0.21,0.29,0,*7F
1501297449.81,59591,17.75,73832.0,1.27,0.21,0.21,0,*78
1501297451.06,59592,17.75,73820.5,1.29,0.17,0.21,0,*70
1501297452.22,59593,17.75,73820.0,1.27,0.43,0.43,0,*7A
1501297453.47,59594,17.75,73810.8,1.29,0.55,0.55,0,*73
1501297454.71,59595,17.75,73820.5,1.29,0.59,0.55,0,*7E
1501297455.94,59596,17.75,73814.5,1.29,0.67,0.71,0,*76
1501297457.16,59597,17.75,73808.3,1.31,0.67,0.63,0,*7D
1501297458.39,59598,17.75,73812.8,1.29,0.71,0.67,0,*78
1501297459.62,59599,17.75,73826.5,1.29,0.67,0.67,0,*7E
1501297460.84,59600,17.75,73832.8,1.27,0.71,0.67,0,*74
1501297462.05,59601,17.75,73834.5,1.31,0.75,0.75,0,*75
1501297463.27,59602,17.75,73842.5,1.31,0.75,0.75,0,*76
1501297464.51,59603,17.75,73836.3,1.33,0.75,0.71,0,*71
1501297465.73,59604,17.75,73840.3,1.31,0.75,0.75,0,*70
1501297466.97,59605,17.75,73830.0,1.33,0.71,0.71,0,*73
1501297468.21,59606,17.75,73832.5,1.33,0.71,0.71,0,*70
1501297469.43,59607,17.75,73834.3,1.31,0.83,0.75,0,*7A
1501297470.67,59608,17.75,73836.8,1.33,0.75,0.75,0,*7E
1501297471.89,59609,17.75,73832.3,1.35,0.79,0.75,0,*75
1501297473.11,59610,17.75,73834.8,1.31,0.71,0.71,0,*75
1501297474.33,59611,17.75,73836.0,1.31,0.71,0.71,0,*74
1501297475.55,59612,17.75,73832.8,1.31,0.71,0.75,0,*73
1501297476.78,59613,17.75,73828.5,1.33,0.63,0.63,0,*74
1501297478.0,59614,17.75,73834.3,1.31,0.71,0.71,0,*71
1501297479.21,59615,17.75,73826.5,1.35,0.67,0.63,0,*70
1501297480.45,59616,17.75,73832.0,1.33,0.63,0.63,0,*71
1501297481.67,59617,17.75,73826.8,1.31,0.71,0.75,0,*76
1501297482.9,59618,17.75,73824.5,1.33,0.75,0.71,0,*7B
1501297484.14,59619,17.75,73826.8,1.33,0.75,0.75,0,*7E
1501297485.39,59620,17.75,73830.0,1.33,0.71,0.75,0,*70
1501297486.63,59621,17.75,73836.3,1.33,0.71,0.63,0,*76
1501297487.87,59622,17.75,73826.8,1.33,0.71,0.63,0,*75
1501297489.11,59623,17.75,73832.8,1.33,0.71,0.63,0,*74
1501297490.35,59624,17.75,73836.8,1.33,0.71,0.71,0,*70
1501297491.58,59625,17.75,73834.8,1.33,0.63,0.63,0,*71
1501297492.82,59626,17.75,73828.3,1.33,0.59,0.59,0,*72
1501297494.07,59627,17.75,73828.3,1.33,0.55,0.55,0,*73
1501297495.29,59628,17.75,73830.5,1.33,0.55,0.43,0,*7B
1501297496.48,59629,17.75,73830.8,1.31,0.37,0.43,0,*7C
1501297497.7,59630,17.75,73824.8,1.33,0.37,0.43,0,*76
1501297498.94,59631,17.75,73822.5,1.33,0.55,0.55,0,*74
1501297500.16,59632,17.75,73816.0,1.31,0.63,0.63,0,*75
1501297501.38,59633,17.75,73822.8,1.31,0.71,0.59,0,*7E
1501297502.62,59634,17.75,73820.5,1.33,0.71,0.71,0,*71
1501297503.86,59635,17.75,73820.5,1.33,0.71,0.71,0,*70
1501297505.08,59636,17.75,73822.5,1.31,0.71,0.71,0,*71
1501297506.32,59637,17.75,73822.3,1.33,0.71,0.71,0,*72
1501297507.56,59638,17.75,73826.3,1.33,0.71,0.75,0,*79
1501297508.8,59639,17.75,73828.3,1.33,0.71,0.63,0,*7F
1501297510.04,59640,17.75,73836.0,1.33,0.63,0.59,0,*7B
1501297511.28,59641,17.75,73836.0,1.33,0.63,0.63,0,*73
1501297512.52,59642,17.75,73838.8,1.33,0.63,0.59,0,*79
1501297513.76,59643,17.75,73834.5,1.33,0.71,0.71,0,*71
1501297515.0,59644,17.75,73838.8,1.33,0.63,0.71,0,*75
1501297516.24,59645,17.75,73840.8,1.33,0.71,0.71,0,*77
1501297517.48,59646,17.75,73840.3,1.33,0.71,0.71,0,*74
1501297518.69,59647,17.75,73840.3,1.35,0.63,0.63,0,*73
1501297519.9,59648,17.75,73842.3,1.35,0.63,0.59,0,*75
1501297521.15,59649,17.69,73836.3,1.33,0.55,0.55,0,*7B
1501297522.39,59650,17.69,73840.3,1.33,0.59,0.59,0,*73
1501297523.63,59651,17.75,73834.5,1.33,0.47,0.47,0,*72
1501297524.85,59652,17.75,73834.5,1.33,0.55,0.43,0,*76
1501297526.09,59653,17.75,73842.5,1.33,0.59,0.59,0,*70
1501297527.33,59654,17.75,73840.8,1.33,0.63,0.63,0,*77
1501297528.57,59655,17.75,73840.3,1.33,0.59,0.59,0,*76
1501297529.81,59656,17.69,73840.0,1.33,0.63,0.71,0,*76
1501297531.05,59657,17.75,73842.3,1.33,0.75,0.71,0,*70
1501297532.29,59658,17.69,73842.0,1.33,0.71,0.71,0,*7B
1501297533.53,59659,17.75,73844.0,1.33,0.55,0.47,0,*79
1501297534.78,59660,17.69,73850.3,1.33,0.47,0.55,0,*73
1501297536.01,59661,17.69,73850.5,1.33,0.25,0.25,0,*71
1501297537.25,59662,17.69,73850.5,1.31,-0.23,-0.27,0,*74
1501297538.43,59663,17.75,73844.0,1.31,-0.15,-0.15,0,*71
1501297539.62,59664,17.69,73844.3,1.31,-0.03,-0.11,0,*45
1501297540.79,59665,17.69,73842.0,1.31,-0.03,-0.03,0,*77
1501297541.98,59666,17.69,73840.5,1.29,0.09,0.09,0,*7D
1501297543.22,59667,17.75,73836.5,1.29,0.29,0.29,0,*7C
1501297544.45,59668,17.69,73824.8,1.29,0.33,0.33,0,*73
1501297545.66,59669,17.75,73830.5,1.27,0.33,0.33,0,*7C
1501297546.91,59670,17.69,73826.8,1.29,0.21,0.21,0,*7A
1501297548.14,59671,17.69,73822.3,1.29,0.21,0.17,0,*7E
1501297549.39,59672,17.69,73818.0,1.29,0.21,0.21,0,*78
1501297550.58,59673,17.69,73820.8,1.29,0.09,0.09,0,*79
1501297551.79,59674,17.69,73824.3,1.27,0.17,0.17,0,*70
1501297553.03,59675,17.69,73816.5,1.29,0.21,0.29,0,*77
1501297554.25,59676,17.69,73824.5,1.27,0.29,0.29,0,*72
1501297555.46,59677,17.69,73822.0,1.27,0.33,0.33,0,*73
1501297556.69,59678,17.69,73826.3,1.29,0.41,0.29,0,*7C
1501297557.86,59679,17.69,73832.5,1.27,0.43,0.43,0,*7D
1501297559.07,59680,17.69,73822.8,1.27,0.29,0.29,0,*7B
1501297560.29,59681,17.69,73826.5,1.27,0.41,0.33,0,*7F
1501297561.51,59682,17.69,73830.8,1.27,0.51,0.51,0,*79
1501297562.72,59683,17.69,73834.0,1.29,0.51,0.43,0,*75
1501297563.94,59684,17.69,73830.3,1.27,0.29,0.33,0,*74
1501297565.15,59685,17.69,73828.0,1.27,0.17,0.21,0,*7B
1501297566.37,59686,17.69,73836.0,1.27,0.29,0.29,0,*7D
1501297567.59,59687,17.69,73838.8,1.27,0.21,0.29,0,*74
1501297568.8,59688,17.69,73838.3,1.27,0.29,0.33,0,*78
1501297569.96,59689,17.69,73838.8,1.27,0.43,0.43,0,*72
1501297571.18,59690,17.69,73834.5,1.27,0.51,0.51,0,*7A
1501297572.4,59691,17.69,73836.3,1.27,0.51,0.51,0,*7B
1501297573.62,59692,17.69,73832.5,1.27,0.59,0.55,0,*74
1501297574.84,59693,17.69,73838.3,1.27,0.59,0.59,0,*79
1501297576.06,59694,17.69,73838.5,1.27,0.59,0.59,0,*7E
1501297577.27,59695,17.69,73842.8,1.27,0.59,0.67,0,*72
1501297578.5,59696,17.69,73838.3,1.29,0.67,0.71,0,*75
1501297579.71,59697,17.69,73836.5,1.27,0.67,0.67,0,*7D
1501297580.96,59698,17.69,73838.8,1.29,0.55,0.55,0,*7C
1501297582.2,59699,17.69,73836.5,1.29,0.59,0.55,0,*71
1501297583.45,59700,17.69,73834.3,1.29,0.55,0.55,0,*7C
1501297584.67,59701,17.69,73834.0,1.27,0.55,0.59,0,*7F
1501297585.92,59702,17.69,73838.0,1.29,0.59,0.59,0,*7E
1501297587.17,59703,17.69,73838.5,1.29,0.55,0.59,0,*73
1501297588.38,59704,17.69,73838.5,1.27,0.59,0.67,0,*7B
1501297589.61,59705,17.69,73838.0,1.29,0.67,0.59,0,*74
1501297590.83,59706,17.69,73836.0,1.27,0.59,0.55,0,*78
1501297592.08,59707,17.69,73844.8,1.29,0.59,0.55,0,*77
1501297593.32,59708,17.69,73844.0,1.29,0.55,0.55,0,*74
1501297594.57,59709,17.69,73842.3,1.29,0.51,0.51,0,*75
1501297595.78,59710,17.69,73840.8,1.29,0.43,0.51,0,*7E
1501297596.97,59711,17.69,73850.5,1.29,0.05,0.05,0,*7C
1501297598.16,59712,17.69,73844.3,1.29,0.05,0.05,0,*7F
1501297599.38,59713,17.69,73844.8,1.27,0.21,0.21,0,*70
1501297600.6,59714,17.69,73844.8,1.27,0.21,0.17,0,*72
1501297601.82,59715,17.69,73842.8,1.27,0.29,0.21,0,*7E
1501297603.02,59716,17.69,73842.0,1.27,0.33,0.33,0,*75
1501297604.24,59717,17.69,73842.8,1.27,0.33,0.33,0,*74
1501297605.45,59718,17.69,73842.3,1.27,0.33,0.29,0,*70
1501297606.66,59719,17.69,73840.8,1.27,0.29,0.33,0,*71
1501297607.85,59720,17.69,73840.3,1.27,0.43,0.51,0,*73
1501297609.07,59721,17.69,73840.3,1.27,0.51,0.51,0,*71
1501297610.29,59722,17.69,73840.0,1.27,0.51,0.51,0,*72
1501297611.51,59723,17.69,73844.3,1.27,0.55,0.55,0,*73
1501297612.73,59724,17.69,73842.0,1.27,0.55,0.63,0,*71
1501297613.9,59725,17.69,73838.3,1.27,0.43,0.43,0,*75
1501297615.11,59726,17.69,73832.5,1.27,0.33,0.29,0,*7D
1501297616.32,59727,17.69,73838.8,1.27,0.41,0.41,0,*77
1501297617.52,59728,17.69,73836.5,1.27,0.51,0.43,0,*7B
1501297618.74,59729,17.69,73836.0,1.27,0.51,0.55,0,*7D
1501297619.96,59730,17.69,73846.3,1.27,0.55,0.55,0,*71
1501297621.19,59731,17.69,73842.5,1.27,0.55,0.55,0,*70
1501297622.41,59732,17.69,73840.8,1.27,0.55,0.55,0,*73
1501297623.64,59733,17.69,73836.8,1.27,0.55,0.55,0,*72
1501297624.86,59734,17.69,73836.8,1.27,0.51,0.51,0,*75
1501297626.04,59735,17.69,73834.5,1.27,0.43,0.41,0,*76
1501297627.25,59736,17.75,73844.5,1.27,0.33,0.33,0,*77
1501297628.44,59737,17.69,73838.5,1.27,0.17,0.09,0,*49
1501297629.65,59738,17.69,73840.8,1.27,0.21,0.17,0,*7C
1501297630.85,59739,17.69,73840.8,1.27,0.51,0.43,0,*7B
1501297632.1,59740,17.69,73842.3,1.25,0.55,0.55,0,*74
1501297633.34,59741,17.69,73842.3,1.25,0.55,0.55,0,*75
1501297634.55,59742,17.69,73838.5,1.27,0.67,0.67,0,*74
1501297635.77,59743,17.69,73840.0,1.27,0.71,0.71,0,*75
1501297636.98,59744,17.69,73840.8,1.27,0.67,0.59,0,*7F
1501297638.2,59745,17.69,73842.8,1.27,0.59,0.67,0,*7E
1501297639.41,59746,17.69,73842.3,1.27,0.59,0.67,0,*7D
1501297640.62,59747,17.69,73842.5,1.27,0.67,0.71,0,*76
1501297641.83,59748,17.69,73842.0,1.27,0.67,0.67,0,*7E
1501297643.07,59749,17.69,73838.3,1.29,0.55,0.55,0,*71
1501297644.28,59750,17.69,73834.8,1.31,0.17,0.17,0,*70
1501297645.45,59751,17.69,73836.3,1.27,0.09,0.09,0,*76
1501297646.67,59752,17.69,73842.3,1.27,0.21,0.29,0,*7D
1501297647.88,59753,17.69,73834.3,1.27,0.41,0.41,0,*74
1501297649.1,59754,17.69,73844.5,1.27,0.51,0.51,0,*73
1501297650.32,59755,17.69,73844.0,1.27,0.51,0.51,0,*72
1501297651.48,59756,17.69,73844.3,1.27,0.43,0.43,0,*71
1501297652.65,59757,17.69,73842.3,1.27,0.43,0.43,0,*70
1501297653.87,59758,17.69,73836.0,1.27,0.51,0.51,0,*7F
1501297655.11,59759,17.69,73844.0,1.25,0.55,0.63,0,*79
1501297656.36,59760,17.69,73848.5,1.25,0.55,0.55,0,*76
1501297657.58,59761,17.69,73844.5,1.27,0.71,0.71,0,*75
1501297658.79,59762,17.69,73844.3,1.27,0.67,0.71,0,*71
1501297660.01,59763,17.69,73840.3,1.27,0.79,0.79,0,*77
1501297661.23,59764,17.69,73848.8,1.27,0.71,0.71,0,*70
1501297662.45,59765,17.69,73838.8,1.27,0.55,0.55,0,*71
1501297663.69,59766,17.69,73840.3,1.29,0.59,0.59,0,*7C
1501297664.92,59767,17.69,73842.8,1.27,0.55,0.55,0,*73
1501297666.17,59768,17.69,73838.8,1.29,0.55,0.55,0,*72
1501297667.38,59769,17.69,73840.3,1.27,0.59,0.59,0,*7D
1501297668.63,59770,17.69,73840.0,1.29,0.55,0.59,0,*77
1501297669.87,59771,17.69,73842.0,1.29,0.59,0.67,0,*77
1501297671.09,59772,17.69,73840.3,1.27,0.55,0.55,0,*77
1501297672.33,59773,17.69,73844.8,1.29,0.59,0.59,0,*78
1501297673.57,59774,17.69,73844.3,1.29,0.67,0.67,0,*7F
1501297674.78,59775,17.69,73844.5,1.31,0.75,0.75,0,*77
1501297676.0,59776,17.69,73846.0,1.27,0.71,0.71,0,*73
1501297677.24,59777,17.69,73846.5,1.29,0.79,0.79,0,*7C
1501297678.49,59778,17.69,73846.3,1.29,0.79,0.83,0,*76
1501297679.74,59779,17.69,73850.8,1.29,0.79,0.79,0,*72
1501297680.98,59780,17.69,73850.0,1.29,0.83,0.83,0,*74
1501297682.23,59781,17.69,73848.0,1.29,0.79,0.83,0,*70
1501297683.47,59782,17.69,73846.5,1.29,0.83,0.79,0,*73
1501297684.71,59783,17.69,73852.3,1.29,0.83,0.79,0,*72
1501297685.94,59784,17.69,73852.3,1.31,0.83,0.83,0,*79
1501297687.16,59785,17.69,73846.0,1.31,0.71,0.75,0,*7C
1501297688.37,59786,17.69,73848.8,1.31,0.63,0.71,0,*78
1501297689.59,59787,17.69,73848.3,1.31,0.59,0.59,0,*7A
1501297690.81,59788,17.75,73856.3,1.31,0.63,0.63,0,*75
1501297692.02,59789,17.69,73850.5,1.31,0.63,0.63,0,*74
1501297693.24,59790,17.69,73848.5,1.31,0.59,0.59,0,*7C
1501297694.46,59791,17.69,73846.5,1.31,0.55,0.55,0,*7D
1501297695.69,59792,17.69,73846.0,1.31,0.55,0.55,0,*7E
1501297696.94,59793,17.69,73844.0,1.29,0.55,0.55,0,*76
1501297698.18,59794,17.69,73848.8,1.29,0.59,0.59,0,*71
1501297699.43,59795,17.69,73856.3,1.29,0.55,0.55,0,*70
1501297700.65,59796,17.69,73850.8,1.27,0.55,0.55,0,*7D
1501297701.9,59797,17.69,73848.8,1.29,0.51,0.55,0,*76
1501297703.14,59798,17.69,73854.0,1.29,0.51,0.55,0,*79
1501297704.39,59799,17.69,73856.5,1.29,0.55,0.55,0,*7C
1501297705.63,59800,17.69,73850.8,1.29,0.59,0.55,0,*7F
1501297706.85,59801,17.69,73846.8,1.29,0.41,0.43,0,*70
1501297708.08,59802,17.69,73854.8,1.29,0.33,0.33,0,*71
1501297709.32,59803,17.69,73856.8,1.29,0.17,0.21,0,*75
1501297710.5,59804,17.69,73852.0,1.27,-0.03,-0.07,0,*7D
1501297711.69,59805,17.69,73846.5,1.27,0.09,0.17,0,*47
1501297712.92,59806,17.69,73844.3,1.29,0.17,0.17,0,*75
1501297714.09,59807,17.69,73840.5,1.27,-0.03,-0.03,0,*7A
1501297715.32,59808,17.69,73830.8,1.27,-0.27,-0.27,0,*75
1501297716.52,59809,17.69,73836.3,1.25,-0.29,-0.29,0,*76
1501297717.75,59810,17.69,73840.5,1.25,-0.11,-0.23,0,*7F
1501297718.93,59811,17.75,73832.8,1.25,0.01,0.01,0,*7F
1501297720.15,59812,17.69,73830.0,1.25,0.13,0.05,0,*4B
1501297721.36,59813,17.69,73824.0,1.23,0.29,0.17,0,*76
1501297722.58,59814,17.69,73826.5,1.23,0.29,0.17,0,*71
1501297723.79,59815,17.69,73826.3,1.23,0.17,0.17,0,*7D
1501297724.95,59816,17.69,73822.8,1.23,0.01,0.01,0,*7E
1501297726.11,59817,17.75,73828.3,1.23,0.01,0.01,0,*7F
1501297727.33,59818,17.69,73828.5,1.25,0.05,0.13,0,*41
1501297728.49,59819,17.75,73828.3,1.23,0.01,-0.07,0,*5A
1501297729.71,59820,17.69,73822.5,1.21,-0.11,-0.11,0,*79
1501297730.96,59821,17.69,73826.5,1.21,-0.23,-0.23,0,*78